Weather History for Edinburg, TX

Change the Weather History Date:

Sunday, July 28, 2013

  Actual Average (KMFE) Record (KMFE)
Temperature  
Mean Temperature 91 °F 87 °F  
Max Temperature 101 °F 98 °F 104 °F (1943)
Min Temperature 81 °F 77 °F 70 °F (1952)
Degree Days  
Heating Degree Days 0 0  
Month to date heating degree days 0  
Since 1 June heating degree days 0  
Since 1 July heating degree days 0  
Cooling Degree Days 26 22  
Month to date cooling degree days 606  
Year to date cooling degree days 2489  
Since 1 June cooling degree days 1234  
Growing Degree Days 41 (Base 50)    
Moisture  
Dew Point 71 °F    
Average Humidity 59    
Maximum Humidity 78    
Minimum Humidity 27    
Precipitation  
Precipitation 0.00 in 0.05 in 1.21 in (2010)
Month to date precipitation 1.86  
Year to date precipitation 11.22  
Sea Level Pressure  
Sea Level Pressure 29.87 in    
Wind  
Wind Speed 13 mph (SSE)    
Max Wind Speed 22 mph    
Max Gust Speed 30 mph    
Visibility 8 miles    
Events      
T = Trace of Precipitation, MM = Missing Value Source: NWS Daily Summary

Daily Weather History Graph

Daily Weather History Graph

Search for Another Location

Airport:

Trip Planner

Search our weather history database for the weather conditions in past years. The results will help you decide how hot, cold, wet, or windy it might be!

Date:

Astronomy

Jul. 28, 2013 Rise Set
Actual Time 6:55 AM CDT 8:21 PM CDT
Civil Twilight 6:30 AM CDT 8:46 PM CDT
Nautical Twilight 6:00 AM CDT 9:16 PM CDT
Astronomical Twilight 5:29 AM CDT 9:47 PM CDT
Moon No Moon Rise 12:55 PM CDT (7/28)
Length of Visible Light 14h 16m
Length of Day
13h 25m
Waning Gibbous, 60% of the Moon is Illuminated
Jul 28
Waning Gibbous
Jul 29
Last Quarter
Aug 6
New
Aug 14
First Quarter
Aug 20
Full

Hourly Weather History & Observations

Time (CDT) Temp. Heat Index Dew Point Humidity Pressure Visibility Wind Dir Wind Speed Gust Speed Precip Events Conditions
12:15 AM 85.1 °F 93.7 °F 75.2 °F 72% 29.89 in 10.0 mi SSE 11.5 mph - N/A   Overcast
12:35 AM 85.1 °F 93.7 °F 75.2 °F 72% 29.90 in 10.0 mi SSE 9.2 mph 17.3 mph N/A   Overcast
12:55 AM 85.1 °F 93.7 °F 75.2 °F 72% 29.90 in 10.0 mi SSE 6.9 mph - N/A   Mostly Cloudy
1:15 AM 85.1 °F 93.3 °F 74.7 °F 71% 29.89 in 10.0 mi SSE 12.7 mph - N/A   Mostly Cloudy
1:35 AM 85.1 °F 92.9 °F 74.3 °F 70% 29.88 in 10.0 mi SSE 13.8 mph 18.4 mph N/A   Mostly Cloudy
1:55 AM 84.6 °F 92.1 °F 74.3 °F 71% 29.88 in 10.0 mi South 12.7 mph - N/A   Mostly Cloudy
2:15 AM 84.2 °F 91.6 °F 74.3 °F 72% 29.88 in 10.0 mi South 11.5 mph 16.1 mph N/A   Scattered Clouds
2:35 AM 84.2 °F 91.6 °F 74.3 °F 72% 29.88 in 10.0 mi South 11.5 mph 16.1 mph N/A   Scattered Clouds
2:55 AM 83.7 °F 90.7 °F 74.3 °F 73% 29.88 in 10.0 mi South 9.2 mph - N/A   Scattered Clouds
3:15 AM 83.3 °F 90.2 °F 74.1 °F 74% 29.87 in 10.0 mi SSE 9.2 mph - N/A   Clear
3:35 AM 82.9 °F 89.4 °F 73.9 °F 74% 29.86 in 10.0 mi SSE 10.4 mph - N/A   Clear
3:55 AM 82.8 °F 89.2 °F 74.1 °F 75% 29.86 in 10.0 mi SSE 11.5 mph - N/A   Clear
4:15 AM 82.4 °F 88.7 °F 74.3 °F 76% 29.86 in 10.0 mi SSE 11.5 mph - N/A   Clear
4:35 AM 82.4 °F 89.0 °F 74.5 °F 77% 29.86 in 10.0 mi SSE 9.2 mph - N/A   Scattered Clouds
4:55 AM 82.4 °F 89.0 °F 74.5 °F 77% 29.86 in 7.0 mi SSE 9.2 mph 20.7 mph N/A   Clear
5:15 AM 82.0 °F 88.4 °F 74.7 °F 78% 29.86 in 7.0 mi SSE 12.7 mph 17.3 mph N/A   Scattered Clouds
5:35 AM 82.0 °F 88.4 °F 74.7 °F 78% 29.86 in 7.0 mi South 9.2 mph - N/A   Scattered Clouds
5:55 AM 81.9 °F 88.0 °F 74.5 °F 78% 29.86 in 7.0 mi SSE 11.5 mph 16.1 mph N/A   Mostly Cloudy
6:15 AM 82.0 °F 88.4 °F 74.5 °F 78% 29.87 in 7.0 mi SSE 10.4 mph 16.1 mph N/A   Mostly Cloudy
6:35 AM 82.4 °F 89.0 °F 74.5 °F 77% 29.88 in 7.0 mi South 11.5 mph 17.3 mph N/A   Mostly Cloudy
6:55 AM 82.4 °F 89.0 °F 74.7 °F 77% 29.89 in 7.0 mi SSE 11.5 mph - N/A   Overcast
7:15 AM 82.4 °F 89.0 °F 74.5 °F 77% 29.89 in 7.0 mi South 10.4 mph 16.1 mph N/A   Mostly Cloudy
7:35 AM 82.0 °F 88.1 °F 74.3 °F 77% 29.89 in 7.0 mi SSE 11.5 mph - N/A   Mostly Cloudy
7:55 AM 82.4 °F 88.7 °F 74.3 °F 76% 29.90 in 7.0 mi SSE 11.5 mph - N/A   Scattered Clouds
8:15 AM 83.3 °F 90.5 °F 74.5 °F 75% 29.90 in 7.0 mi South 11.5 mph 16.1 mph N/A   Clear
9:15 AM 86.0 °F 93.4 °F 73.4 °F 66% 29.91 in 7.0 mi South 17.3 mph 24.2 mph N/A   Clear
9:35 AM 87.1 °F 94.1 °F 72.7 °F 62% 29.91 in 10.0 mi SSE 16.1 mph 24.2 mph N/A   Clear
9:55 AM 88.3 °F 95.4 °F 72.1 °F 59% 29.91 in 7.0 mi SSE 16.1 mph 19.6 mph N/A   Clear
10:15 AM 89.6 °F 96.2 °F 71.4 °F 55% 29.92 in 5.0 mi South 12.7 mph 18.4 mph N/A   Haze
10:35 AM 90.5 °F 96.5 °F 70.9 °F 52% 29.92 in 5.0 mi South 19.6 mph 23.0 mph N/A   Haze
10:55 AM 91.6 °F 97.7 °F 70.7 °F 50% 29.92 in 5.0 mi South 15.0 mph 21.9 mph N/A   Haze
12:15 PM 95.9 °F 98.5 °F 65.1 °F 36% 29.90 in 7.0 mi South 16.1 mph - N/A   Clear
12:35 PM 96.8 °F 99.0 °F 64.2 °F 34% 29.90 in 5.0 mi South 15.0 mph 20.7 mph N/A   Haze
12:55 PM 97.3 °F 99.4 °F 63.5 °F 33% 29.90 in 5.0 mi South 13.8 mph 24.2 mph N/A   Haze
1:55 PM 100.4 °F 101.3 °F 61.0 °F 27% 29.87 in 7.0 mi South 13.8 mph 21.9 mph N/A   Clear
2:55 PM 101.7 °F 103.9 °F 63.1 °F 28% 29.85 in 7.0 mi SSE 12.7 mph 26.5 mph N/A   Scattered Clouds
3:15 PM 100.2 °F 103.3 °F 64.4 °F 31% 29.84 in 7.0 mi SSE 9.2 mph 20.7 mph N/A   Scattered Clouds
3:35 PM 100.0 °F 103.6 °F 65.5 °F 32% 29.84 in 7.0 mi SE 12.7 mph 25.3 mph N/A   Scattered Clouds
3:55 PM 101.1 °F 105.6 °F 65.8 °F 32% 29.83 in 7.0 mi SE 16.1 mph 24.2 mph N/A   Scattered Clouds
4:15 PM 99.7 °F 104.2 °F 66.4 °F 34% 29.83 in 5.0 mi SE 17.3 mph 28.8 mph N/A   Haze
4:35 PM 100.4 °F 104.9 °F 66.2 °F 33% 29.82 in 7.0 mi SSE 16.1 mph 20.7 mph N/A   Scattered Clouds
4:55 PM 99.9 °F 104.6 °F 66.7 °F 34% 29.82 in 7.0 mi SSE 15.0 mph 27.6 mph N/A   Scattered Clouds
5:15 PM 99.1 °F 103.8 °F 67.1 °F 35% 29.82 in 5.0 mi SSE 18.4 mph 29.9 mph N/A   Haze
5:35 PM 98.6 °F 104.1 °F 68.4 °F 37% 29.82 in 5.0 mi SE 21.9 mph 27.6 mph N/A   Haze
5:55 PM 97.7 °F 103.6 °F 68.5 °F 39% 29.82 in 5.0 mi SSE 21.9 mph 28.8 mph N/A   Haze
6:15 PM 96.8 °F 103.8 °F 70.3 °F 42% 29.83 in 7.0 mi SSE 19.6 mph 28.8 mph N/A   Clear
7:15 PM 93.9 °F 100.8 °F 70.9 °F 47% 29.83 in 10.0 mi SE 21.9 mph 27.6 mph N/A   Clear
7:35 PM 93.0 °F 99.0 °F 70.2 °F 47% 29.84 in 10.0 mi SE 21.9 mph 28.8 mph N/A   Clear
8:15 PM 90.5 °F 97.5 °F 71.6 °F 54% 29.85 in 10.0 mi SSE 17.3 mph 24.2 mph N/A   Clear
8:35 PM 89.6 °F 96.6 °F 72.0 °F 56% 29.86 in 10.0 mi SSE 13.8 mph - N/A   Clear
8:55 PM 88.5 °F 95.8 °F 72.5 °F 59% 29.86 in 10.0 mi SSE 21.9 mph 27.6 mph N/A   Clear
9:15 PM 87.8 °F 95.2 °F 72.7 °F 61% 29.87 in 10.0 mi SE 20.7 mph 28.8 mph N/A   Clear
9:35 PM 86.9 °F 94.1 °F 73.0 °F 63% 29.88 in 10.0 mi SE 18.4 mph 25.3 mph N/A   Clear